Flag for Brazil Weather past 2 weeks in Araguaína, Tocantins, Brazil

Now
90 °F

Passing clouds.


Feels Like: 96 °F
Forecast: 74 / 96 °F
Wind: 8 mph from Southeast

Location: Maraba Airport

Current Time: Sep 17, 2014 at 11:25:23 AM

Latest Report: Sep 17, 2014 at 11:00 AM


Visibility: N/A

Pressure: 29.95 "Hg

Humidity: 55%

Dew point: 72 °F

Location of AraguaínaLocation

Historic Weather in Araguaína — Graph

°F

Araguaína temperature yesterday

Maximum temperature yesterday: 95 °F (at 3:00 PM)
Minimum temperature yesterday: 73 °F (at 5:00 AM)
Average temperature yesterday: 83 °F

Past Weeks' High & Low Weather Summary

 TemperatureHumidityPressure
High97 °F (Sep 3, 2:00 PM)100% (Sep 3, 3:00 AM)30.01 "Hg (Sep 3, 3:00 AM)
Low70 °F (Sep 3, 5:00 AM)34% (Sep 3, 4:00 PM)29.74 "Hg (Sep 11, 5:00 PM)
Average82 °F76%29.88 "Hg
* Reported Sep 2 10:00 AM — Sep 17 10:00 AM, Araguaína, Weather by CustomWeather, © 2014

Note: Actual official high and low records may vary slightly from our data, if they occured in-between our weather recording intervals... More about our weather records

Advertising

Araguaína weather history for previous 24 hours

 ConditionsComfort  
Time TempWeatherWind HumidityBarometerVisibility
10:00 AM
Sep 17
88 °FPassing clouds.9 mph59%29.95 "HgN/A
9:00 AM82 °FPassing clouds.6 mph70%29.95 "HgN/A
8:00 AM77 °FPassing clouds.3 mph89%29.92 "HgN/A
7:00 AM75 °FSunny.3 mph94%29.92 "Hg10 mi
6:00 AM75 °FClear.3 mph94%29.89 "Hg10 mi
5:00 AM75 °FClear.7 mph94%29.86 "Hg10 mi
4:00 AM77 °FClear.3 mph89%29.86 "Hg10 mi
3:00 AM77 °FClear.2 mph94%29.86 "Hg10 mi
2:00 AM77 °FClear.5 mph94%29.86 "Hg10 mi
1:00 AM77 °FClear.2 mph89%29.89 "Hg10 mi
12:00 AM79 °FClear.5 mph84%29.89 "Hg10 mi
11:00 PM
Sep 16
81 °FClear.3 mph79%29.89 "Hg10 mi
10:00 PM79 °FClear.3 mph84%29.89 "Hg10 mi
9:14 PM82 °FWarm.No wind74%29.89 "HgN/A
8:00 PM82 °FClear.5 mph74%29.86 "Hg10 mi
7:00 PM86 °FPassing clouds.3 mph62%29.83 "HgN/A
6:00 PM90 °FPassing clouds.7 mph55%29.83 "HgN/A
5:00 PM93 °FPassing clouds.6 mph49%29.83 "HgN/A
4:00 PM95 °FPassing clouds.5 mph47%29.83 "HgN/A
3:00 PM95 °FPassing clouds.5 mph47%29.86 "HgN/A
2:00 PM91 °FScattered clouds.3 mph56%29.89 "HgN/A
1:00 PM91 °FScattered clouds.5 mph59%29.92 "HgN/A
12:00 PM90 °FBroken clouds.6 mph63%29.95 "HgN/A
11:00 AM88 °FScattered clouds.7 mph62%29.98 "HgN/A
Weather by CustomWeather, © 2014

See weather overviewHow to use our weather pages